軌道要素
Epoch 2018 June 11.0 TT = JDT 2458280.5
T 2018 May 28.98291 TT MPCW
q 2.5265294 (2000.0) P Q
n 0.10442511 Peri. 1.52995 +0.69303243 -0.71676409
a 4.4661443 Node 44.60844 +0.66024615 +0.58809055
e 0.4342929 Incl. 6.30892 +0.28944960 +0.37469819
P 9.44
From 257 observations 2008 Sept. 28-2019 Jan. 4, mean residual 0".6.
|